Skip Page Navigation
NASA JPL Caltech
NASA Logo - Jet Propulsion Laboratory + View the NASA Portal
+ Center for Near-Earth Object Studies
JPL Home Earth Solar System Stars & Galaxies Technology
JPL Solar System Dynamics
BODIES ORBITS EPHEMERIDES TOOLS PHYSICAL DATA DISCOVERY FAQ SITE MAP
IMPORTANT: The SSD Announcement email list is now available. Major changes are coming in the near future, including possible hostname and/or URL changes. To be notified of such changes, subscribe to this email list.

Please visit this page for more details.


JPL Small-Body Database Browser
Search: [ help ]  
214495 (2005 UO435)
Classification: Outer Main-belt Asteroid          SPK-ID: 2214495
Ephemeris | Orbit Diagram | Orbital Elements | Mission Design | Physical Parameters | Discovery Circumstances | Close-Approach Data ]

[ show orbit diagram ]
Orbital Elements at Epoch 2458600.5 (2019-Apr-27.0) TDB
Reference: JPL 7 (heliocentric ecliptic J2000)
 Element Value Uncertainty (1-sigma)   Units 
e .1546456418901011 7.1035e-08  
a 3.204017904006554 3.8963e-08 au
q 2.708530498614084 2.1773e-07 au
i 3.955782338034079 6.5082e-06 deg
node 71.30699716216853 0.00010662 deg
peri 86.15609123176745 0.00010929 deg
M 28.71599397465263 2.2222e-05 deg
tp 2458433.405490032248
(2018-Nov-10.90549003)
0.00012888 TDB
period 2094.79162175226
5.74
3.8211e-05
1.046e-07
d
yr
n .1718548022923949 3.1348e-09 deg/d
Q 3.699505309399025 4.4989e-08 au
  Orbit Determination Parameters
   # obs. used (total)      216  
   data-arc span      6697 days (18.34 yr)  
   first obs. used      2001-01-04  
   last obs. used      2019-05-07  
   planetary ephem.      DE431  
   SB-pert. ephem.      SB431-N16  
   condition code      0  
   norm. resid. RMS      .62152  
   source      ORB  
   producer      Otto Matic  
   solution date      2019-May-30 08:21:24  

Additional Information
 Earth MOID = 1.72213 au 
 Jupiter MOID = 1.30493 au 
 T_jup = 3.171 
[ show covariance matrix ]

Ephemeris | Orbit Diagram | Orbital Elements | Mission Design | Physical Parameters | Discovery Circumstances | Close-Approach Data ]

Physical Parameter Table
Parameter Symbol Value Units Sigma Reference Notes
absolute magnitude H 15.6   n/a MPO391112  

214495 (2005 UO435)          Discovered 2005-Oct-29 by Mt. Lemmon Survey at Mount Lemmon
Reference: 20090509/Numbers.arcLast Updated: 2009-05-11

[ show close-approach data ]
Ephemeris | Orbit Diagram | Orbital Elements | Mission Design | Physical Parameters | Discovery Circumstances | Close-Approach Data ]
ABOUT SSD CREDITS/AWARDS PRIVACY/COPYRIGHT GLOSSARY LINKS
FirstGov 2019-Dec-11 01:55 UT
(server date/time)  
NASA Home Page
Site Manager:   Ryan S. Park
Webmaster  Alan B. Chamberlin